Location: Nied?wied?
(53.3665°N, 14.8184°E)
Time: 23:30:22
(UTC+00:00)

Cosmos 2263 Rocket - Pass Details

Date: 03 March 2021
Orbit: 825 x 847 km, 71.0° (Epoch: 12 April)

Event Time Altitude Azimuth Distance (km) Brightness Sun altitude
Rises 17:46:15 0° 322° (NW) 3,375 6.0 -10.3°
Reaches altitude 10° 17:48:59 10° 312° (NW) 2,437 5.4 -10.7°
Maximum altitude 17:53:39 28° 255° (WSW) 1,503 4.4 -11.4°
Drops below altitude 10° 17:58:18 10° 198° (SSW) 2,424 4.7 -12.1°
Sets 18:01:01 0° 187° (S) 3,355 5.3 -12.5°
